Voltar ao catálogo

STARLINK-4277

AtivoComunicaçõesVLEO
NORAD 53009·PAYLOAD·🇺🇸 United States

Lançado Jul 7, 2022 de Cape Canaveral Space Force Station

Loading…

Próximas Passagens (próximas 24 horas)

TLE

AtualizadoSource: CelesTrak SupGP

Época: Sep 14, 2026, 21:06 UTC

1 53009C 22076Z   26257.87965278 -.00015907  00000+0 -45515-3 0  2571
2 53009  53.1587 307.8467 0001130  80.7245 258.3496 15.35403986    16

Acompanhe STARLINK-4277 em tempo real com AllMySat

Download on the App Store